FW2486 Weather Reports


Display with metric or nautical units.
time (UTC)temp
F
wind
direction
speed
MPH
gust
MPH
rain 1hr
in
rain 24hr
in
rain mn
in
humidity
%
barometer
mb
20260502151531 54 337 0.0 6.0 0.00 0.00 0.00 88 1018.6
20260502150108 54 104 2.0 4.0 0.00 0.00 0.00 90 1018.3
20260502120106 54 157 0.0 3.0 0.00 0.00 0.00 83 1017.6
20260502114535 54 149 3.0 6.0 0.00 0.00 0.00 83 1017.8
20260502113031 54 151 5.0 9.0 0.00 0.00 0.00 82 1017.6
20260502111532 54 170 6.0 33.0 0.00 0.00 0.00 81 1017.6
20260502110045 55 345 2.0 39.0 0.00 0.00 0.00 78 1017.7
20260502104531 56 308 2.0 11.0 0.00 0.00 0.00 78 1018.0
20260502103033 56 189 2.0 12.0 0.00 0.00 0.00 76 1018.2
20260502091531 57 182 6.0 16.0 0.00 0.00 0.00 77 1018.4
20260502090150 56 140 4.0 8.0 0.00 0.00 0.00 79 1018.5
20260502071536 59 146 4.0 7.0 0.00 0.00 0.00 72 1018.5
20260502070106 60 121 4.0 5.0 0.00 0.00 0.00 71 1018.4
20260502064532 60 127 4.0 7.0 0.00 0.00 0.00 70 1018.5
20260502063141 61 133 3.0 7.0 0.00 0.00 0.00 69 1018.7
20260502061536 62 122 4.0 11.0 0.00 0.00 0.00 67 1018.5
20260502060031 62 143 4.0 15.0 0.00 0.00 0.00 66 1018.4
20260502050036 63 183 3.0 16.0 0.00 0.00 0.00 63 1018.2
20260502044536 63 155 3.0 8.0 0.00 0.00 0.00 62 1017.9
20260502043036 64 177 3.0 9.0 0.00 0.00 0.00 61 1017.8
20260502041536 65 197 6.0 15.0 0.00 0.00 0.00 59 1017.5
20260502033106 66 151 5.0 14.0 0.00 0.00 0.00 57 1017.4
20260502024642 68 210 8.0 24.0 0.00 0.00 0.00 51 1016.7
20260502021605 71 211 7.0 17.0 0.00 0.00 0.00 46 1016.0
20260502020036 73 254 4.0 15.0 0.00 0.00 0.00 41 1015.9
20260502014608 74 326 1.0 3.0 0.00 0.00 0.00 39 1015.9
20260502011534 77 351 2.0 6.0 0.00 0.00 0.00 35 1015.8
20260502004535 78 317 5.0 8.0 0.00 0.00 0.00 33 1015.8
20260502003035 79 355 4.0 10.0 0.00 0.00 0.00 33 1015.8
20260502000037 77 348 4.0 7.0 0.00 0.00 0.00 35 1016.1
20260501234534 76 341 4.0 8.0 0.00 0.00 0.00 35 1016.3
20260501233036 77 351 5.0 11.0 0.00 0.00 0.00 35 1016.5
20260501231532 77 360 5.0 14.0 0.00 0.00 0.00 34 1016.7
20260501230107 77 355 5.0 18.0 0.00 0.00 0.00 35 1016.9
20260501224544 77 350 5.0 19.0 0.00 0.00 0.00 35 1017.1
20260501221606 76 7 5.0 12.0 0.00 0.00 0.00 36 1017.5
20260501220037 76 351 5.0 14.0 0.00 0.00 0.00 37 1017.7
20260501213035 75 344 5.0 11.0 0.00 0.00 0.00 38 1018.0
20260501211642 74 3 5.0 14.0 0.00 0.00 0.00 39 1018.1
20260501210034 74 336 7.0 12.0 0.00 0.00 0.00 39 1018.3
20260501201536 71 336 6.0 14.0 0.00 0.00 0.00 42 1018.9
20260501200033 70 339 6.0 11.0 0.00 0.00 0.00 43 1019.0
20260501194531 69 325 6.0 11.0 0.00 0.00 0.00 44 1019.2
20260501193143 68 329 6.0 12.0 0.00 0.00 0.00 45 1019.3
20260501191536 67 335 7.0 13.0 0.00 0.00 0.00 46 1019.4
20260501190036 67 338 8.0 13.0 0.00 0.00 0.00 45 1019.5
20260501183032 65 334 7.0 12.0 0.00 0.00 0.00 46 1019.8
20260501181537 64 326 5.0 10.0 0.00 0.00 0.00 45 1020.0
20260501174531 64 328 5.0 10.0 0.00 0.00 0.00 46 1020.1
20260501173036 64 156 1.0 5.0 0.00 0.00 0.00 49 1020.3
20260501171533 62 91 2.0 8.0 0.00 0.00 0.00 52 1020.4
20260501170036 60 50 1.0 5.0 0.00 0.00 0.00 55 1020.5
20260501164533 60 353 1.0 4.0 0.00 0.00 0.00 55 1020.7